| time (UTC) | temp F | wind direction | speed knots | gust knots | rain 1hr in | rain 24hr in | rain mn in | humidity % | barometer mb |
| 20260506091510 | 64 | 211 | 0.0 | 0.0 | 0.00 | 0.00 | 0.00 | 81 | 1015.7 |
| 20260506091007 | 64 | 204 | 0.0 | 0.0 | 0.00 | 0.00 | 0.00 | 80 | 1015.6 |
| 20260506090508 | 64 | 211 | 0.0 | 0.0 | 0.00 | 0.00 | 0.00 | 80 | 1015.5 |
| 20260506090005 | 64 | 198 | 0.0 | 0.0 | 0.00 | 0.00 | 0.00 | 80 | 1015.5 |
| 20260506085740 | 64 | 195 | 0.0 | 0.0 | 0.00 | 0.00 | 0.00 | 79 | 1015.6 |
| 20260506085003 | 64 | 209 | 0.0 | 0.0 | 0.00 | 0.00 | 0.00 | 79 | 1015.7 |
| 20260506084502 | 64 | 206 | 0.0 | 0.0 | 0.00 | 0.00 | 0.00 | 79 | 1015.6 |
| 20260506084242 | 64 | 214 | 0.0 | 0.0 | 0.00 | 0.00 | 0.00 | 79 | 1015.7 |
| 20260506083502 | 64 | 213 | 0.0 | 0.0 | 0.00 | 0.00 | 0.00 | 78 | 1015.8 |
| 20260506083002 | 64 | 212 | 0.0 | 0.0 | 0.00 | 0.00 | 0.00 | 78 | 1015.7 |
| 20260506082502 | 64 | 198 | 0.0 | 0.0 | 0.00 | 0.00 | 0.00 | 78 | 1015.6 |
| 20260506082003 | 64 | 211 | 0.0 | 0.9 | 0.00 | 0.00 | 0.00 | 78 | 1015.4 |
| 20260506081504 | 63 | 196 | 0.0 | 0.9 | 0.00 | 0.00 | 0.00 | 78 | 1015.5 |
| 20260506081239 | 63 | 213 | 0.0 | 0.0 | 0.00 | 0.00 | 0.00 | 78 | 1015.7 |
| 20260506080503 | 63 | 217 | 0.0 | 0.0 | 0.00 | 0.00 | 0.00 | 78 | 1015.7 |
| 20260506080240 | 63 | 194 | 0.0 | 0.0 | 0.00 | 0.00 | 0.00 | 78 | 1015.6 |
| 20260506073501 | 63 | 208 | 0.0 | 0.0 | 0.00 | 0.00 | 0.00 | 75 | 1015.7 |
| 20260506073003 | 64 | 186 | 0.0 | 0.0 | 0.00 | 0.00 | 0.00 | 75 | 1015.6 |
| 20260506072500 | 64 | 202 | 0.0 | 0.0 | 0.00 | 0.00 | 0.00 | 74 | 1015.7 |
| 20260506072001 | 64 | 202 | 0.0 | 0.0 | 0.00 | 0.00 | 0.00 | 74 | 1015.7 |
| 20260506071502 | 64 | 201 | 0.0 | 0.0 | 0.00 | 0.00 | 0.00 | 74 | 1015.6 |
| 20260506071006 | 64 | 185 | 0.0 | 0.0 | 0.00 | 0.00 | 0.00 | 73 | 1015.6 |
| 20260506070500 | 64 | 184 | 0.0 | 0.0 | 0.00 | 0.00 | 0.00 | 73 | 1015.7 |
| 20260506070247 | 64 | 176 | 0.0 | 0.0 | 0.00 | 0.00 | 0.00 | 73 | 1015.9 |
| 20260506062454 | 64 | 188 | 0.0 | 0.0 | 0.00 | 0.00 | 0.00 | 69 | 1016.5 |
| 20260506061957 | 65 | 188 | 0.0 | 0.0 | 0.00 | 0.00 | 0.00 | 68 | 1016.6 |
| 20260506061447 | 65 | 188 | 0.0 | 0.0 | 0.00 | 0.00 | 0.00 | 68 | 1016.6 |
| 20260506060943 | 65 | 188 | 0.0 | 0.0 | 0.00 | 0.00 | 0.00 | 67 | 1016.6 |
| 20260506060439 | 65 | 187 | 0.0 | 0.0 | 0.00 | 0.00 | 0.00 | 67 | 1016.7 |
| 20260506050905 | 66 | 207 | 0.0 | 0.0 | 0.00 | 0.00 | 0.00 | 60 | 1016.7 |
| 20260506050402 | 66 | 204 | 0.0 | 0.0 | 0.00 | 0.00 | 0.00 | 60 | 1016.7 |
| 20260506044904 | 67 | 221 | 0.0 | 0.0 | 0.00 | 0.00 | 0.00 | 59 | 1016.3 |
| 20260506044404 | 67 | 199 | 0.0 | 0.0 | 0.00 | 0.00 | 0.00 | 58 | 1016.2 |
| 20260506043902 | 67 | 203 | 0.0 | 0.0 | 0.00 | 0.00 | 0.00 | 58 | 1016.0 |
| 20260506043401 | 67 | 201 | 0.0 | 0.0 | 0.00 | 0.00 | 0.00 | 58 | 1016.3 |
| 20260506043143 | 67 | 190 | 0.0 | 0.0 | 0.00 | 0.00 | 0.00 | 58 | 1016.6 |
| 20260506042401 | 67 | 206 | 0.0 | 0.0 | 0.00 | 0.00 | 0.00 | 57 | 1016.9 |
| 20260506041902 | 67 | 196 | 0.0 | 0.0 | 0.00 | 0.00 | 0.00 | 57 | 1016.5 |
| 20260506041404 | 68 | 196 | 0.0 | 0.0 | 0.00 | 0.00 | 0.00 | 56 | 1016.6 |
| 20260506040902 | 68 | 207 | 0.0 | 0.0 | 0.00 | 0.00 | 0.00 | 56 | 1016.8 |
| 20260506040356 | 68 | 192 | 0.0 | 0.0 | 0.00 | 0.00 | 0.00 | 55 | 1016.5 |
| 20260506035852 | 68 | 198 | 0.0 | 0.0 | 0.00 | 0.00 | 0.00 | 55 | 1016.4 |
| 20260506035351 | 68 | 183 | 0.0 | 0.0 | 0.00 | 0.00 | 0.00 | 55 | 1016.5 |
| 20260506035136 | 68 | 213 | 0.0 | 0.0 | 0.00 | 0.00 | 0.00 | 54 | 1016.5 |
| 20260506034349 | 68 | 213 | 0.0 | 0.0 | 0.00 | 0.00 | 0.00 | 54 | 1016.5 |
| 20260506033848 | 68 | 206 | 0.0 | 0.0 | 0.00 | 0.00 | 0.00 | 54 | 1016.4 |
| 20260506033348 | 68 | 199 | 0.0 | 0.0 | 0.00 | 0.00 | 0.00 | 54 | 1016.3 |
| 20260506032846 | 69 | 185 | 0.0 | 0.0 | 0.00 | 0.00 | 0.00 | 53 | 1016.5 |
| 20260506032346 | 69 | 205 | 0.0 | 0.0 | 0.00 | 0.00 | 0.00 | 52 | 1016.6 |
| 20260506031844 | 69 | 191 | 0.0 | 0.0 | 0.00 | 0.00 | 0.00 | 51 | 1016.7 |
| 20260506031343 | 69 | 221 | 0.0 | 0.0 | 0.00 | 0.00 | 0.00 | 51 | 1016.5 |
| 20260506030842 | 69 | 190 | 0.0 | 0.0 | 0.00 | 0.00 | 0.00 | 51 | 1016.2 |
| 20260506030342 | 69 | 203 | 0.0 | 0.0 | 0.00 | 0.00 | 0.00 | 50 | 1016.3 |
| 20260506030129 | 69 | 180 | 0.0 | 0.0 | 0.00 | 0.00 | 0.00 | 50 | 1016.3 |
| 20260506025342 | 69 | 210 | 0.0 | 0.0 | 0.00 | 0.00 | 0.00 | 50 | 1016.5 |
| 20260506024845 | 69 | 192 | 0.0 | 0.0 | 0.00 | 0.00 | 0.00 | 50 | 1016.5 |
| 20260506024343 | 69 | 216 | 0.0 | 0.0 | 0.00 | 0.00 | 0.00 | 51 | 1016.7 |
| 20260506024131 | 69 | 206 | 0.0 | 0.0 | 0.00 | 0.00 | 0.00 | 51 | 1016.7 |
| 20260506023337 | 69 | 198 | 0.0 | 0.0 | 0.00 | 0.00 | 0.00 | 50 | 1016.8 |
| 20260506022837 | 69 | 205 | 0.0 | 0.0 | 0.00 | 0.00 | 0.00 | 51 | 1016.9 |
| 20260506022336 | 69 | 202 | 0.0 | 0.0 | 0.00 | 0.00 | 0.00 | 51 | 1016.8 |
| 20260506021836 | 69 | 202 | 0.0 | 0.0 | 0.00 | 0.00 | 0.00 | 51 | 1016.7 |
| 20260506021337 | 69 | 172 | 0.0 | 0.0 | 0.00 | 0.00 | 0.00 | 51 | 1016.7 |
| 20260506020834 | 69 | 205 | 0.0 | 0.0 | 0.00 | 0.00 | 0.00 | 51 | 1016.7 |
| 20260506020333 | 70 | 200 | 0.0 | 0.0 | 0.00 | 0.00 | 0.00 | 50 | 1016.4 |
| 20260506015834 | 70 | 226 | 0.0 | 0.0 | 0.00 | 0.00 | 0.00 | 50 | 1016.5 |
| 20260506015333 | 70 | 227 | 0.0 | 0.0 | 0.00 | 0.00 | 0.00 | 49 | 1016.3 |
| 20260506014832 | 70 | 200 | 0.0 | 0.0 | 0.00 | 0.00 | 0.00 | 50 | 1016.2 |
| 20260506014615 | 70 | 205 | 0.0 | 0.0 | 0.00 | 0.00 | 0.00 | 50 | 1016.4 |
| 20260506013830 | 71 | 204 | 0.0 | 0.0 | 0.00 | 0.00 | 0.00 | 50 | 1016.7 |
| 20260506013331 | 71 | 207 | 0.0 | 0.0 | 0.00 | 0.00 | 0.00 | 49 | 1016.6 |
| 20260506012835 | 71 | 200 | 0.0 | 0.0 | 0.00 | 0.00 | 0.00 | 49 | 1016.4 |
| 20260506012332 | 71 | 180 | 0.0 | 0.0 | 0.00 | 0.00 | 0.00 | 50 | 1016.5 |
| 20260506011831 | 71 | 199 | 0.0 | 0.0 | 0.00 | 0.00 | 0.00 | 49 | 1016.3 |
| 20260506011332 | 71 | 194 | 0.0 | 0.0 | 0.00 | 0.00 | 0.00 | 50 | 1016.3 |
| 20260506010832 | 71 | 194 | 0.0 | 0.0 | 0.00 | 0.00 | 0.00 | 50 | 1016.3 |
| 20260506010329 | 71 | 197 | 0.0 | 0.0 | 0.00 | 0.00 | 0.00 | 49 | 1016.3 |
| 20260506010112 | 71 | 196 | 0.0 | 0.0 | 0.00 | 0.00 | 0.00 | 49 | 1016.2 |
| 20260506005329 | 71 | 177 | 0.0 | 0.0 | 0.00 | 0.00 | 0.00 | 49 | 1016.2 |
| 20260506004830 | 71 | 201 | 0.0 | 0.0 | 0.00 | 0.00 | 0.00 | 48 | 1016.2 |
| 20260506004329 | 71 | 161 | 0.0 | 0.0 | 0.00 | 0.00 | 0.00 | 48 | 1016.4 |
| 20260506003829 | 70 | 183 | 0.0 | 0.0 | 0.00 | 0.00 | 0.00 | 50 | 1016.4 |
| 20260506003329 | 70 | 175 | 0.0 | 0.0 | 0.00 | 0.00 | 0.00 | 49 | 1016.4 |
| 20260506002832 | 71 | 224 | 0.0 | 0.0 | 0.00 | 0.00 | 0.00 | 48 | 1016.6 |
| 20260506002610 | 71 | 224 | 0.0 | 0.0 | 0.00 | 0.00 | 0.00 | 47 | 1016.6 |
| 20260506002108 | 72 | 224 | 0.0 | 0.0 | 0.00 | 0.00 | 0.00 | 47 | 1016.6 |
| 20260506001328 | 73 | 224 | 0.0 | 0.0 | 0.00 | 0.00 | 0.00 | 44 | 1016.7 |
| 20260506000822 | 73 | 223 | 0.0 | 0.0 | 0.00 | 0.00 | 0.00 | 44 | 1016.7 |
| 20260506000315 | 73 | 223 | 0.0 | 0.9 | 0.00 | 0.00 | 0.00 | 44 | 1016.8 |
| 20260505235814 | 73 | 224 | 0.0 | 0.9 | 0.00 | 0.00 | 0.00 | 42 | 1016.7 |
| 20260505235315 | 74 | 228 | 0.0 | 0.0 | 0.00 | 0.00 | 0.00 | 42 | 1016.5 |
| 20260505234813 | 74 | 223 | 0.0 | 0.0 | 0.00 | 0.00 | 0.00 | 42 | 1016.6 |
| 20260505234313 | 74 | 221 | 0.0 | 0.0 | 0.00 | 0.00 | 0.00 | 41 | 1016.5 |
| 20260505233812 | 74 | 234 | 0.0 | 0.0 | 0.00 | 0.00 | 0.00 | 41 | 1016.6 |
| 20260505233310 | 75 | 248 | 0.0 | 0.0 | 0.00 | 0.00 | 0.00 | 41 | 1016.7 |
| 20260505232810 | 75 | 223 | 0.0 | 0.0 | 0.00 | 0.00 | 0.00 | 41 | 1016.7 |
| 20260505232307 | 75 | 203 | 1.7 | 9.6 | 0.00 | 0.00 | 0.00 | 41 | 1016.7 |
| 20260505231804 | 75 | 216 | 1.7 | 9.6 | 0.00 | 0.00 | 0.00 | 42 | 1016.7 |
| 20260505231304 | 75 | 193 | 0.0 | 0.9 | 0.00 | 0.00 | 0.00 | 41 | 1016.7 |
| 20260505230804 | 75 | 252 | 0.0 | 3.5 | 0.00 | 0.00 | 0.00 | 41 | 1016.7 |
| 20260505230304 | 76 | 234 | 2.6 | 7.0 | 0.00 | 0.00 | 0.00 | 42 | 1016.6 |
| 20260505225804 | 76 | 221 | 4.3 | 7.0 | 0.00 | 0.00 | 0.00 | 40 | 1016.6 |
| 20260505225305 | 76 | 245 | 3.5 | 7.0 | 0.00 | 0.00 | 0.00 | 40 | 1016.4 |
| 20260505224803 | 76 | 225 | 3.5 | 10.4 | 0.00 | 0.00 | 0.00 | 41 | 1016.4 |
| 20260505224304 | 76 | 171 | 4.3 | 10.4 | 0.00 | 0.00 | 0.00 | 40 | 1016.3 |
| 20260505223804 | 77 | 167 | 3.5 | 8.7 | 0.00 | 0.00 | 0.00 | 40 | 1016.2 |
| 20260505223302 | 77 | 188 | 4.3 | 9.6 | 0.00 | 0.00 | 0.00 | 40 | 1016.2 |
| 20260505222752 | 78 | 219 | 3.5 | 9.6 | 0.00 | 0.00 | 0.00 | 38 | 1016.3 |
| 20260505222246 | 77 | 248 | 4.3 | 7.8 | 0.00 | 0.00 | 0.00 | 39 | 1016.3 |
| 20260505221741 | 76 | 209 | 4.3 | 7.8 | 0.00 | 0.00 | 0.00 | 37 | 1016.3 |
| 20260505221234 | 77 | 171 | 3.5 | 7.8 | 0.00 | 0.00 | 0.00 | 39 | 1016.4 |
| 20260505220735 | 77 | 205 | 3.5 | 7.0 | 0.00 | 0.00 | 0.00 | 37 | 1016.3 |
| 20260505220409 | 77 | 191 | 5.2 | 13.0 | 0.00 | 0.00 | 0.00 | 36 | 1016.3 |
| 20260505220304 | 77 | 196 | 3.5 | 13.0 | 0.00 | 0.00 | 0.00 | 38 | 1016.3 |
| 20260505215358 | 77 | 205 | 5.2 | 14.8 | 0.00 | 0.00 | 0.00 | 36 | 1016.2 |
| 20260505215251 | 77 | 165 | 6.1 | 14.8 | 0.00 | 0.00 | 0.00 | 36 | 1016.2 |
| 20260505214233 | 78 | 190 | 4.3 | 11.3 | 0.00 | 0.00 | 0.00 | 37 | 1015.9 |
| 20260505213730 | 78 | 180 | 4.3 | 11.3 | 0.00 | 0.00 | 0.00 | 35 | 1016.0 |
| 20260505213518 | 78 | 211 | 5.2 | 11.3 | 0.00 | 0.00 | 0.00 | 35 | 1016.2 |
| 20260505212730 | 79 | 164 | 6.1 | 11.3 | 0.00 | 0.00 | 0.00 | 36 | 1016.3 |
| 20260505212230 | 79 | 252 | 6.1 | 10.4 | 0.00 | 0.00 | 0.00 | 37 | 1016.3 |
| 20260505211730 | 79 | 201 | 6.1 | 17.4 | 0.00 | 0.00 | 0.00 | 35 | 1016.2 |
| 20260505211229 | 79 | 200 | 4.3 | 17.4 | 0.00 | 0.00 | 0.00 | 36 | 1016.6 |
| 20260505210731 | 79 | 199 | 3.5 | 9.6 | 0.00 | 0.00 | 0.00 | 36 | 1016.6 |
| 20260505210230 | 79 | 215 | 4.3 | 9.6 | 0.00 | 0.00 | 0.00 | 35 | 1016.6 |
| 20260505205729 | 79 | 276 | 6.1 | 11.3 | 0.00 | 0.00 | 0.00 | 37 | 1016.5 |
| 20260505205229 | 78 | 184 | 6.1 | 13.9 | 0.00 | 0.00 | 0.00 | 37 | 1016.6 |
| 20260505204734 | 78 | 169 | 6.1 | 13.9 | 0.00 | 0.00 | 0.00 | 36 | 1016.3 |
| 20260505204236 | 78 | 171 | 4.3 | 11.3 | 0.00 | 0.00 | 0.00 | 37 | 1016.6 |
| 20260505203736 | 79 | 231 | 4.3 | 11.3 | 0.00 | 0.00 | 0.00 | 37 | 1016.7 |
| 20260505203233 | 79 | 209 | 5.2 | 12.2 | 0.00 | 0.00 | 0.00 | 36 | 1016.9 |
| 20260505203011 | 78 | 205 | 5.2 | 12.2 | 0.00 | 0.00 | 0.00 | 35 | 1016.8 |
| 20260505202230 | 79 | 157 | 5.2 | 9.6 | 0.00 | 0.00 | 0.00 | 39 | 1016.8 |
| 20260505201729 | 78 | 200 | 5.2 | 8.7 | 0.00 | 0.00 | 0.00 | 37 | 1017.0 |
| 20260505201229 | 79 | 186 | 4.3 | 8.7 | 0.00 | 0.00 | 0.00 | 37 | 1017.1 |
| 20260505201016 | 78 | 263 | 3.5 | 8.7 | 0.00 | 0.00 | 0.00 | 37 | 1017.1 |
| 20260505200229 | 79 | 148 | 3.5 | 11.3 | 0.00 | 0.00 | 0.00 | 39 | 1017.2 |
| 20260505195730 | 79 | 164 | 4.3 | 11.3 | 0.00 | 0.00 | 0.00 | 39 | 1017.3 |
| 20260505195656 | 79 | 204 | 4.3 | 12.2 | 0.00 | 0.00 | 0.00 | 38 | 1017.3 |
| 20260505195617 | 78 | 174 | 4.3 | 9.6 | 0.00 | 0.00 | 0.00 | 38 | 1017.3 |
| 20260505194232 | 79 | 211 | 5.2 | 12.2 | 0.00 | 0.00 | 0.00 | 40 | 1017.5 |
| 20260505193730 | 78 | 215 | 5.2 | 9.6 | 0.00 | 0.00 | 0.00 | 40 | 1017.5 |
| 20260505193230 | 78 | 190 | 5.2 | 10.4 | 0.00 | 0.00 | 0.00 | 38 | 1017.5 |
| 20260505192730 | 78 | 178 | 5.2 | 12.2 | 0.00 | 0.00 | 0.00 | 37 | 1017.6 |
| 20260505192230 | 78 | 188 | 4.3 | 13.9 | 0.00 | 0.00 | 0.00 | 41 | 1017.6 |
| 20260505191729 | 78 | 235 | 5.2 | 13.9 | 0.00 | 0.00 | 0.00 | 39 | 1017.5 |
| 20260505191224 | 78 | 198 | 6.1 | 13.0 | 0.00 | 0.00 | 0.00 | 41 | 1017.5 |
| 20260505190721 | 77 | 164 | 6.1 | 13.0 | 0.00 | 0.00 | 0.00 | 43 | 1017.6 |
| 20260505190212 | 77 | 217 | 5.2 | 11.3 | 0.00 | 0.00 | 0.00 | 39 | 1017.6 |
| 20260505185710 | 78 | 228 | 5.2 | 10.4 | 0.00 | 0.00 | 0.00 | 40 | 1017.6 |
| 20260505185210 | 77 | 200 | 6.1 | 14.8 | 0.00 | 0.00 | 0.00 | 40 | 1017.6 |
| 20260505184705 | 77 | 274 | 7.0 | 14.8 | 0.00 | 0.00 | 0.00 | 38 | 1017.6 |
| 20260505184206 | 78 | 208 | 6.1 | 13.0 | 0.00 | 0.00 | 0.00 | 40 | 1017.7 |
| 20260505183705 | 77 | 229 | 7.0 | 14.8 | 0.00 | 0.00 | 0.00 | 41 | 1017.6 |
| 20260505183206 | 77 | 198 | 7.0 | 14.8 | 0.00 | 0.00 | 0.00 | 37 | 1017.9 |
| 20260505182706 | 77 | 257 | 5.2 | 13.0 | 0.00 | 0.00 | 0.00 | 41 | 1017.8 |
| 20260505182206 | 77 | 250 | 6.1 | 13.0 | 0.00 | 0.00 | 0.00 | 44 | 1018.0 |
| 20260505181703 | 76 | 238 | 7.0 | 13.0 | 0.00 | 0.00 | 0.00 | 42 | 1017.9 |
| 20260505181203 | 76 | 251 | 5.2 | 13.0 | 0.00 | 0.00 | 0.00 | 39 | 1018.1 |
| 20260505180936 | 76 | 186 | 5.2 | 12.2 | 0.00 | 0.00 | 0.00 | 42 | 1018.1 |
| 20260505180201 | 76 | 185 | 5.2 | 11.3 | 0.00 | 0.00 | 0.00 | 41 | 1018.3 |
| 20260505175701 | 76 | 218 | 5.2 | 13.0 | 0.00 | 0.00 | 0.00 | 41 | 1018.4 |
| 20260505175202 | 76 | 211 | 6.1 | 13.0 | 0.00 | 0.00 | 0.00 | 43 | 1018.6 |
| 20260505174700 | 76 | 211 | 5.2 | 10.4 | 0.00 | 0.00 | 0.00 | 43 | 1018.7 |
| 20260505174202 | 76 | 200 | 5.2 | 10.4 | 0.00 | 0.00 | 0.00 | 41 | 1018.7 |
| 20260505173702 | 75 | 234 | 2.6 | 12.2 | 0.00 | 0.00 | 0.00 | 41 | 1018.6 |
| 20260505173157 | 76 | 211 | 0.9 | 12.2 | 0.00 | 0.00 | 0.00 | 41 | 1018.9 |
| 20260505172656 | 76 | 148 | 0.0 | 9.6 | 0.00 | 0.00 | 0.00 | 44 | 1019.1 |
| 20260505172154 | 75 | 197 | 0.9 | 9.6 | 0.00 | 0.00 | 0.00 | 42 | 1018.8 |
| 20260505171654 | 76 | 148 | 0.0 | 9.6 | 0.00 | 0.00 | 0.00 | 42 | 1018.9 |
| 20260505171154 | 76 | 159 | 0.9 | 10.4 | 0.00 | 0.00 | 0.00 | 47 | 1019.0 |
| 20260505170941 | 76 | 175 | 2.6 | 11.3 | 0.00 | 0.00 | 0.00 | 43 | 1018.9 |
| 20260505170153 | 75 | 229 | 2.6 | 11.3 | 0.00 | 0.00 | 0.00 | 44 | 1019.0 |
| 20260505165654 | 76 | 229 | 1.7 | 9.6 | 0.00 | 0.00 | 0.00 | 47 | 1019.1 |
| 20260505165157 | 76 | 258 | 0.0 | 9.6 | 0.00 | 0.00 | 0.00 | 42 | 1019.1 |
| 20260505164656 | 76 | 193 | 0.0 | 0.9 | 0.00 | 0.00 | 0.00 | 46 | 1019.1 |
| 20260505164154 | 74 | 199 | 0.9 | 13.0 | 0.00 | 0.00 | 0.00 | 45 | 1019.2 |
| 20260505163651 | 75 | 183 | 1.7 | 13.0 | 0.00 | 0.00 | 0.00 | 43 | 1019.1 |
| 20260505163152 | 75 | 225 | 0.9 | 8.7 | 0.00 | 0.00 | 0.00 | 43 | 1019.0 |
| 20260505162652 | 75 | 223 | 0.9 | 7.0 | 0.00 | 0.00 | 0.00 | 44 | 1018.7 |
| 20260505162151 | 75 | 205 | 0.9 | 7.8 | 0.00 | 0.00 | 0.00 | 44 | 1018.9 |
| 20260505161652 | 74 | 170 | 1.7 | 7.8 | 0.00 | 0.00 | 0.00 | 41 | 1018.9 |
| 20260505161151 | 75 | 191 | 1.7 | 8.7 | 0.00 | 0.00 | 0.00 | 42 | 1018.9 |
| 20260505160651 | 74 | 228 | 1.7 | 8.7 | 0.00 | 0.00 | 0.00 | 43 | 1018.9 |
| 20260505160154 | 74 | 246 | 2.6 | 12.2 | 0.00 | 0.00 | 0.00 | 42 | 1018.8 |
| 20260505153150 | 74 | 243 | 6.1 | 15.6 | 0.00 | 0.00 | 0.00 | 46 | 1019.3 |
| 20260505152652 | 74 | 252 | 3.5 | 11.3 | 0.00 | 0.00 | 0.00 | 49 | 1019.3 |
| 20260505152153 | 74 | 229 | 2.6 | 12.2 | 0.00 | 0.00 | 0.00 | 49 | 1019.3 |
| 20260505151929 | 73 | 192 | 1.7 | 12.2 | 0.00 | 0.00 | 0.00 | 49 | 1019.3 |
| 20260505151424 | 74 | 220 | 0.9 | 7.0 | 0.00 | 0.00 | 0.00 | 52 | 1019.5 |
| 20260505150645 | 73 | 206 | 0.0 | 6.1 | 0.00 | 0.00 | 0.00 | 52 | 1019.1 |
| 20260505150146 | 72 | 167 | 0.0 | 4.3 | 0.00 | 0.00 | 0.00 | 57 | 1019.1 |
| 20260505140637 | 69 | 344 | 0.0 | 0.0 | 0.00 | 0.00 | 0.00 | 64 | 1019.1 |
| 20260505140131 | 68 | 335 | 0.0 | 0.0 | 0.00 | 0.00 | 0.00 | 64 | 1018.9 |
| 20260505124539 | 57 | 75 | 0.0 | 0.0 | 0.00 | 0.00 | 0.00 | 85 | 1018.6 |
| 20260505124037 | 56 | 75 | 0.0 | 0.0 | 0.00 | 0.00 | 0.00 | 86 | 1018.6 |
| 20260505123536 | 55 | 75 | 0.0 | 0.0 | 0.00 | 0.00 | 0.00 | 88 | 1018.5 |
| 20260505123035 | 54 | 76 | 0.0 | 0.0 | 0.00 | 0.00 | 0.00 | 88 | 1018.4 |
| 20260505122531 | 53 | 76 | 0.0 | 0.0 | 0.00 | 0.00 | 0.00 | 89 | 1018.5 |
| 20260505122323 | 52 | 205 | 0.0 | 0.0 | 0.00 | 0.00 | 0.00 | 88 | 1018.3 |
| 20260505121530 | 52 | 206 | 0.0 | 0.0 | 0.00 | 0.00 | 0.00 | 88 | 1018.2 |
| 20260505121032 | 51 | 205 | 0.0 | 0.0 | 0.00 | 0.00 | 0.00 | 89 | 1018.3 |
| 20260505120529 | 50 | 205 | 0.0 | 0.0 | 0.00 | 0.00 | 0.00 | 89 | 1018.2 |
| 20260505120031 | 50 | 205 | 0.0 | 0.0 | 0.00 | 0.00 | 0.00 | 89 | 1018.3 |
| 20260505115529 | 50 | 205 | 0.0 | 0.0 | 0.00 | 0.00 | 0.00 | 89 | 1018.3 |
| 20260505115030 | 50 | 205 | 0.0 | 0.0 | 0.00 | 0.00 | 0.00 | 89 | 1018.3 |
| 20260505114529 | 50 | 206 | 0.0 | 0.0 | 0.00 | 0.00 | 0.00 | 89 | 1018.2 |
| 20260505114029 | 50 | 205 | 0.0 | 0.0 | 0.00 | 0.00 | 0.00 | 89 | 1018.0 |
| 20260505113529 | 49 | 205 | 0.0 | 0.0 | 0.00 | 0.00 | 0.00 | 89 | 1017.9 |
| 20260505113030 | 49 | 205 | 0.0 | 0.0 | 0.00 | 0.00 | 0.00 | 89 | 1017.9 |
| 20260505112528 | 48 | 205 | 0.0 | 0.0 | 0.00 | 0.00 | 0.00 | 89 | 1017.7 |
| 20260505112029 | 48 | 205 | 0.0 | 0.0 | 0.00 | 0.00 | 0.00 | 89 | 1017.8 |
| 20260505111525 | 48 | 205 | 0.0 | 0.0 | 0.00 | 0.00 | 0.00 | 89 | 1017.8 |
| 20260505111024 | 48 | 206 | 0.0 | 0.0 | 0.00 | 0.00 | 0.00 | 89 | 1017.7 |
| 20260505110525 | 48 | 206 | 0.0 | 0.0 | 0.00 | 0.00 | 0.00 | 89 | 1017.8 |
| 20260505102007 | 48 | 206 | 0.0 | 0.0 | 0.00 | 0.00 | 0.00 | 88 | 1017.6 |
| 20260505101507 | 48 | 206 | 0.0 | 0.0 | 0.00 | 0.00 | 0.00 | 88 | 1017.6 |
| 20260505101003 | 47 | 206 | 0.0 | 0.0 | 0.00 | 0.00 | 0.00 | 88 | 1017.6 |
| 20260505100502 | 48 | 206 | 0.0 | 0.0 | 0.00 | 0.00 | 0.00 | 87 | 1017.7 |
| 20260505100004 | 48 | 206 | 0.0 | 0.0 | 0.00 | 0.00 | 0.00 | 88 | 1017.7 |
| 20260505095503 | 49 | 206 | 0.0 | 0.0 | 0.00 | 0.00 | 0.00 | 88 | 1017.8 |
| 20260505095005 | 49 | 206 | 0.0 | 0.0 | 0.00 | 0.00 | 0.00 | 88 | 1017.8 |
| 20260505094504 | 49 | 206 | 0.0 | 0.0 | 0.00 | 0.00 | 0.00 | 88 | 1017.8 |
| 20260505094003 | 49 | 206 | 0.0 | 0.0 | 0.00 | 0.00 | 0.00 | 88 | 1017.8 |
| 20260505093457 | 49 | 206 | 0.0 | 0.0 | 0.00 | 0.00 | 0.00 | 88 | 1017.7 |
| 20260505092955 | 49 | 206 | 0.0 | 0.0 | 0.00 | 0.00 | 0.00 | 89 | 1017.7 |
| 20260505092454 | 48 | 206 | 0.0 | 0.0 | 0.00 | 0.00 | 0.00 | 89 | 1017.4 |
| 20260505092414 | 48 | 206 | 0.0 | 0.0 | 0.00 | 0.00 | 0.00 | 89 | 1017.6 |
| 20260505092338 | 48 | 206 | 0.0 | 0.0 | 0.00 | 0.00 | 0.00 | 89 | 1017.6 |